Home   Weather   34°44'N, 87°40'W   Past weeks
Flag for USA

Past Weather in 34°44'N, 87°40'W, USA — Yesterday and Last 2 Weeks

Now
78 °F

Clear.


Feels Like: 80 °F
Forecast: 92 / 69 °F
Wind: 3 mph from Southeast

Location: North West Alabama Regional Airport

Current Time: May 24, 2019 at 10:12:29 pm

Latest Report: May 24, 2019 at 8:53 pm


Visibility: 10 mi

Pressure: 30.06 "Hg

Humidity: 76%

Dew Point: 70 °F

Location of 34°44'N, 87°40'WLocation

Past Weather in 34°44'N, 87°40'W — Graph

°F

34°44'N, 87°40'W Temperature Yesterday

Maximum temperature yesterday: 93 °F (at 4:53 pm)
Minimum temperature yesterday: 68 °F (at 3:53 am)
Average temperature yesterday: 81 °F

High & Low Weather Summary for the Past Weeks

 TemperatureHumidityPressure
High95 °F (May 24, 3:53 pm)97% (May 16, 3:53 am)30.23 "Hg (May 16, 3:53 am)
Low49 °F (May 14, 5:53 am)34% (May 23, 4:53 pm)29.76 "Hg (May 12, 1:53 am)
Average73 °F73%29.97 "Hg
* Reported May 9 7:53 pm — May 24 7:53 pm, 34°44'N, 87°40'W. Weather by CustomWeather, © 2019

Note: Actual official high and low records may vary slightly from our data, if they occured in-between our weather recording intervals... More about our weather records

Advertising

34°44'N, 87°40'W Weather History for the Previous 24 Hours

Scroll right to see more
 ConditionsComfort  
Time TempWeatherWind HumidityBarometerVisibility
7:53 pm
Fri, May 24
85 °FClear.No wind55%30.06 "Hg10 mi
6:53 pm89 °FSunny.8 mph48%30.07 "Hg10 mi
5:53 pm92 °FPassing clouds.10 mph44%30.08 "Hg10 mi
4:53 pm93 °FScattered clouds.10 mph42%30.09 "Hg10 mi
3:53 pm95 °FScattered clouds.13 mph41%30.11 "Hg10 mi
2:53 pm94 °FPassing clouds.9 mph43%30.12 "Hg10 mi
1:53 pm92 °FPassing clouds.6 mph44%30.13 "Hg10 mi
12:53 pm91 °FScattered clouds.7 mph45%30.14 "Hg10 mi
11:53 am91 °FScattered clouds.9 mph47%30.16 "Hg10 mi
10:53 am87 °FPartly sunny.7 mph55%30.17 "Hg10 mi
10:19 am88 °FPassing clouds.7 mph52%30.19 "Hg10 mi
9:53 am86 °FSunny.5 mph57%30.17 "Hg10 mi
8:53 am80 °FPassing clouds.No wind69%30.19 "Hg10 mi
7:53 am76 °FSunny.No wind77%30.17 "Hg10 mi
6:53 am73 °FPassing clouds.No wind84%30.15 "Hg10 mi
5:53 am69 °FSunny.No wind90%30.12 "Hg10 mi
4:53 am70 °FClear.No wind87%30.11 "Hg10 mi
3:53 am70 °FClear.No wind87%30.10 "Hg10 mi
2:53 am71 °FClear.No wind84%30.10 "Hg10 mi
1:53 am71 °FClear.No wind87%30.10 "Hg10 mi
12:53 am73 °FClear.No wind81%30.11 "Hg10 mi
11:53 pm
Thu, May 23
72 °FClear.No wind81%30.12 "Hg10 mi
10:53 pm73 °FClear.No wind84%30.12 "Hg10 mi
Weather by CustomWeather, © 2019

See weather overview